Location: Berlin
(52.5171°N, 13.4421°E)
Time: 15:47:43
(UTC+02:00)

ISS - Visible Passes

Search period start: 18 May 2021 00:00
Search period end: 28 May 2021 00:00
Orbit: 417 x 422 km, 51.6° (Epoch: 18 May)

Date Brightness Start Highest point End Pass type
(mag) Time Alt. Az. Time Alt. Az. Time Alt. Az.
18 May -3.8 01:19:24 10° W 01:22:44 60° SSW 01:22:53 59° S visible
18 May -3.9 22:55:12 10° WSW 22:58:33 68° S 23:01:55 10° E visible
19 May -3.9 00:31:56 10° W 00:35:18 70° S 00:36:28 37° ESE visible
19 May -1.4 02:08:52 10° W 02:09:22 13° W 02:09:22 13° W visible
19 May -3.7 22:07:49 10° WSW 22:11:08 58° SSE 22:14:27 10° E visible
19 May -3.9 23:44:29 10° W 23:47:51 77° S 23:50:16 18° E visible
20 May -2.4 01:21:19 10° W 01:23:11 26° WSW 01:23:11 26° WSW visible
20 May -3.9 22:57:01 10° W 23:00:24 79° S 23:03:46 10° E visible
21 May -3.6 00:33:49 10° W 00:37:05 48° SSW 00:37:07 48° SSW visible
21 May -3.8 22:09:35 10° W 22:12:57 76° S 22:16:18 10° E visible
21 May -3.8 23:46:20 10° W 23:49:40 60° SSW 23:51:03 31° SE visible
22 May -1.4 01:23:27 10° W 01:23:59 13° WSW 01:23:59 13° WSW visible
22 May -3.8 22:58:52 10° W 23:02:14 70° S 23:05:02 14° ESE visible
23 May -2.4 00:35:48 10° W 00:37:58 25° SW 00:37:58 25° SW visible
23 May -3.8 22:11:24 10° W 22:14:47 77° S 22:18:09 10° E visible
23 May -3.1 23:48:14 10° W 23:51:23 37° SSW 23:51:59 34° S visible
24 May -3.4 23:00:43 10° W 23:03:59 48° SSW 23:06:00 20° SE visible
25 May -1.4 00:38:13 10° WSW 00:38:57 13° WSW 00:38:57 13° WSW visible
25 May -3.6 22:13:13 10° W 22:16:33 60° SSW 22:19:53 10° ESE visible
25 May -2.2 23:50:20 10° W 23:52:57 21° SSW 23:53:00 21° SSW visible
26 May -2.6 23:02:40 10° W 23:05:37 28° SSW 23:07:06 20° SSE visible
27 May -3.0 22:15:05 10° W 22:18:14 37° SSW 22:21:12 11° SE visible
27 May -1.2 23:53:49 10° SW 23:54:09 10° SW 23:54:09 10° SW visible
